Tracking 18840 objects as of 18-November-2017
HD Live streaming from Space Station
objects crossing your sky now

FENGYUN 1C DEB

Track FENGYUN 1C DEB now!
10-day predictions


NORAD ID: 40696
Int'l Code: 1999-025EXC
Perigee: 857.8 km
Apogee: 975.5 km
Inclination: 99.0 °
Period: 103.2 minutes
Semi major axis: 7287 km
RCS: Unknown
Launch date: May 10, 1999
Source: People's Republic of China (PRC)
Launch site: Taiyaun Space Center, China (TSC)

Note: This is SATELLITE DEBRIS
aabbcc
Your satellite tracking list
Your tracking list is empty




NASA's NSSDC Master Catalog

Two Line Element Set (TLE):
1 40696U 99025EXC 17314.31931828  .00000126  00000-0  12177-3 0  9991
2 40696  99.0376 345.7808 0080765 198.4443 161.3786 13.95471266415911
Source of the keplerian elements: AFSPC